(118) Peitho
ephemeris date magn radius delta ra dec elong phase
Today27 Jun 202613.72.511 AU2.126 AU23h55m-10°11'100.0°23.5°
Opposition14 Sep 202611.92.369 AU1.374 AU23h47m-13°28'168.8°4.7°
(118) Peitho - 2026-06-27
astro.vanbuitenen.nl


 
-1 year
-1 month
-1 day
Now
+1 day
+1 month
+1 year

The interactive orbit chart above shows the body's path through the solar system and its position at the given date. Green and blue lines are shown perpendicular to the ecliptic plane: Green if the path is above the ecliptic plane, blue if it is below. (Left-click and drag to rotate the view; Right-click and drag to move the view; Use scroll wheel to zoom in our out.)

The orbital elements of Peitho are:

            e (Eccentricity)                : 0.1633440
            a (Semimajor axis)              : 2.4377478
            i (Inclination)                 : 7.74630
            Ω (Longitude of ascending node) : 47.62668
            ω (Argument of perihelion)      : 33.13910
            M (Mean anomaly)                : 263.94901
            Epoch                           : 2026 Jun 09

            L (Longitude of perihelion)     : 80.52579
            B (Latitude of perihelion)      : 4.22564
            P (Orbital period in years)     : 3.81            
        

The light curve chart below shows the estimated development of the minor planet's magnitude.


The all-sky chart below shows the path of the minor planet over the same period as the light curve. The current position is marked yellow.





The following chart shows the path of the minor planet in the next few days. The field of view is optimized for (~10x50) binoculars and finderscopes.




Ephemerides:
Date       Time       RA (2000)    DEC (2000)    delta   radius  elong  phase   PA    magn
2026-06-27 00:00 UT   23 55 32.5   -10 11 59     2.126    2.511  100.0   23.5   248   13.7 
2026-06-27 14:43 UT   23 56 02.1   -10 10 31     2.118    2.510  100.5   23.5   248   13.7 
2026-06-28 00:00 UT   23 56 20.7   -10 09 37     2.112    2.509  100.8   23.5   248   13.6 
2026-06-29 00:00 UT   23 57 07.9   -10 07 22     2.098    2.507  101.5   23.4   248   13.6 
2026-06-30 00:00 UT   23 57 54.1   -10 05 15     2.085    2.506  102.3   23.4   248   13.6 
2026-07-01 00:00 UT   23 58 39.2   -10 03 15     2.071    2.504  103.0   23.3   248   13.6 
2026-07-02 00:00 UT   23 59 23.4   -10 01 23     2.057    2.502  103.8   23.2   249   13.6 
2026-07-03 00:00 UT   00 00 06.4   -09 59 39     2.044    2.501  104.5   23.2   249   13.6 
2026-07-04 00:00 UT   00 00 48.4   -09 58 02     2.030    2.499  105.3   23.1   249   13.5 
2026-07-05 00:00 UT   00 01 29.3   -09 56 34     2.017    2.497  106.1   23.0   249   13.5 
2026-07-06 00:00 UT   00 02 09.1   -09 55 13     2.003    2.495  106.9   22.9   249   13.5 
2026-07-07 00:00 UT   00 02 47.7   -09 54 00     1.990    2.494  107.6   22.9   249   13.5 
2026-07-08 00:00 UT   00 03 25.2   -09 52 56     1.976    2.492  108.4   22.8   249   13.5 
2026-07-09 00:00 UT   00 04 01.5   -09 51 60     1.963    2.490  109.2   22.7   250   13.4 
2026-07-10 00:00 UT   00 04 36.6   -09 51 12     1.950    2.488  110.0   22.6   250   13.4 
2026-07-11 00:00 UT   00 05 10.5   -09 50 33     1.936    2.487  110.8   22.5   250   13.4 
2026-07-12 00:00 UT   00 05 43.1   -09 50 02     1.923    2.485  111.6   22.4   250   13.4 
2026-07-13 00:00 UT   00 06 14.4   -09 49 40     1.910    2.483  112.5   22.2   250   13.4 
2026-07-14 00:00 UT   00 06 44.5   -09 49 26     1.897    2.481  113.3   22.1   250   13.3 
2026-07-15 00:00 UT   00 07 13.2   -09 49 22     1.884    2.480  114.1   22.0   251   13.3 
2026-07-16 00:00 UT   00 07 40.7   -09 49 26     1.872    2.478  114.9   21.8   251   13.3 
2026-07-17 00:00 UT   00 08 06.7   -09 49 39     1.859    2.476  115.8   21.7   251   13.3 
2026-07-18 00:00 UT   00 08 31.5   -09 50 00     1.846    2.474  116.6   21.5   251   13.3 
2026-07-19 00:00 UT   00 08 54.8   -09 50 31     1.834    2.473  117.5   21.4   251   13.2 
2026-07-20 00:00 UT   00 09 16.7   -09 51 10     1.821    2.471  118.3   21.2   252   13.2 
2026-07-21 00:00 UT   00 09 37.2   -09 51 58     1.809    2.469  119.2   21.1   252   13.2 
2026-07-22 00:00 UT   00 09 56.3   -09 52 55     1.797    2.467  120.0   20.9   252   13.2 
2026-07-23 00:00 UT   00 10 14.0   -09 54 01     1.784    2.465  120.9   20.7   252   13.2 
2026-07-24 00:00 UT   00 10 30.1   -09 55 16     1.772    2.464  121.8   20.5   253   13.1 
2026-07-25 00:00 UT   00 10 44.8   -09 56 39     1.760    2.462  122.7   20.3   253   13.1 
2026-07-26 00:00 UT   00 10 58.0   -09 58 11     1.749    2.460  123.6   20.1   253   13.1 
2026-07-27 00:00 UT   00 11 09.7   -09 59 53     1.737    2.458  124.5   19.9   253   13.1 


    Terminology:
            
    delta:  distance between minor planet and earth in AU
    radius: distance between minor planet and sun in AU
    magn:   magnitude (brightness) estimate    
    ra:     right ascension in hours (24h = 360deg)
    dec:    declination in degrees
    elong:  elongation in degrees (angle sun-earth-minor planet)    
    phase:  phase angle in degrees (angle sun-minor planet-earth)        
    AU:     Astronomical Unit (mean distance between earth and sun: 149597870.7 km
    

Orbital elements provided by the MPC (Minor Planet Center).
Calculations by a modified version of AAPlus, a C# implementation of the AA+ project by PJ Naughter from the algorithms presented in the book "Astronomical Algorithms" by Jean Meeus.
NGC2000 dso catalog and star labels from VizieR as provided by the Strasbourg astronomical Data Center.
Tycho2 catalog from the ESO archive.